Temp
14 14 14 15 14 14 15 15 16 16 16 17 16 16 17 17 17 17 12 13 14 14 15 18 18 18 18 14 13 15 15 15 16 15 16 13 14 13 13 13 12 11 12 11 11
13 14 14 15 15 15 15 15 16 17 17 17 17 17 17 17 17 14 14 13 14 14 16 16 16 16 14 14 13 13 14 17 14 14 14 13 14 13 13 12 13 12 9 9 10
13 14 15 15 15 16 16 16 17 17 17 17 17 18 18 17 17 15 15 16 16 17 17 16 16 17 15 14 12 12 15 13 12 12 13 13 13 11 12 12 11 11 9 8 8
13 14 15 16 16 16 16 16 17 18 18 18 17 18 18 17 21 16 16 16 17 17 17 17 16 17 14 15 13 13 12 13 12 11 13 13 11 12 10 13 13 11 8 8 7
13 14 15 15 16 16 17 17 18 18 18 18 18 18 18 14 15 15 15 17 18 18 14 15 15 16 15 14 13 14 12 11 11 11 11 11 11 11 9 10 10 9 9 7 7
14 14 15 15 16 16 18 18 18 18 18 19 19 19 18 15 16 15 15 16 16 16 14 13 14 13 12 12 13 12 11 11 11 12 11 11 11 9 12 9 9 9 9 8 8
14 15 15 16 17 17 18 18 18 18 18 19 19 19 15 16 16 15 16 15 15 15 14 13 14 15 13 14 11 11 15 12 11 11 12 9 11 9 11 10 9 8 8 8 9
15 15 16 17 17 19 19 18 19 19 18 19 19 19 16 16 16 16 16 16 16 16 15 15 15 11 12 12 12 13 13 14 12 9 11 12 15 15 11 10 10 8 8 8 9
16 16 17 17 18 19 19 19 19 19 19 19 19 18 18 17 16 15 14 14 15 16 16 15 13 10 10 13 13 10 14 14 13 9 10 12 12 13 10 10 10 8 8 8 8
16 16 17 18 18 19 19 20 19 19 19 19 18 19 16 14 14 15 14 14 13 14 16 12 9 9 7 9 12 14 13 12 12 10 8 9 9 10 9 8 8 7 7 7 8
16 17 17 18 17 18 19 19 17 17 15 13 14 14 13 14 14 15 13 14 14 11 12 10 9 10 10 9 11 11 11 11 10 8 8 10 7 9 9 9 6 6 7 6 7
17 17 17 17 17 18 18 12 11 14 14 13 13 13 13 12 13 14 14 14 13 12 11 12 11 10 9 10 10 11 11 9 9 9 7 6 7 9 10 12 8 7 6 7 8
18 17 17 18 18 17 14 11 12 13 15 16 13 14 13 13 12 12 10 12 12 11 9 12 12 10 10 10 10 10 10 9 8 6 7 5 10 14 14 12 10 9 8 8 7
18 18 17 17 17 15 13 13 13 13 15 18 16 15 14 13 14 12 11 12 11 13 10 10 10 10 11 11 9 9 8 8 7 5 8 5 11 14 12 13 11 10 9 9 9
18 18 17 18 17 14 13 13 13 13 16 17 15 15 14 14 13 14 11 12 12 12 12 12 9 10 12 10 9 9 7 7 6 1 1 7 6 11 11 13 12 10 9 9 10
18 18 17 16 16 13 13 13 13 14 15 18 15 13 15 12 13 11 11 9 10 12 9 8 7 7 8 7 8 6 7 7 4 2 7 4 5 10 12 13 11 9 8 8 9
17 17 17 16 13 14 14 13 14 14 17 17 14 13 13 12 13 10 9 4 7 12 11 10 9 7 6 8 7 5 5 8 10 8 11 5 4 9 12 12 9 8 8 8 8
17 17 16 14 14 14 14 15 19 17 16 13 13 13 15 12 13 10 11 8 5 8 5 8 12 8 5 4 5 5 3 7 10 9 9 7 7 9 9 8 8 8 8 9 8
16 16 15 14 14 14 12 12 15 15 13 13 14 15 15 13 12 11 8 5 4 1 10 7 12 5 4 4 3 7 5 5 1 -2 2 7 8 8 10 8 8 9 9 7 6
16 15 14 14 13 13 11 13 12 11 11 11 16 14 15 13 14 12 11 4 5 2 1 6 7 8 4 4 3 3 2 6 1 7 8 9 4 9 7 7 6 6 6 5 4
16 13 14 14 13 9 9 9 11 10 10 12 13 13 10 11 12 12 10 8 6 5 3 -0 4 9 5 5 4 2 0 0 1 2 5 4 8 5 6 7 4 5 5 3 3
12 15 15 14 11 3 8 11 11 10 9 10 9 8 10 11 12 12 12 10 4 4 4 1 3 5 9 -3 -5 -2 1 -0 9 9 4 4 9 2 -1 -2 2 1 0 1 0
8 8 15 14 8 8 9 10 10 10 10 10 11 10 9 11 10 11 11 5 4 5 3 3 5 9 11 3 -0 -0 -4 -5 -1 4 6 10 10 1 -1 -3 -2 -1 2 2 1
6 10 9 4 4 6 11 12 12 9 10 10 10 10 10 11 9 9 11 6 5 6 7 6 4 9 13 12 7 7 2 -5 5 7 9 9 9 9 6 2 3 3 3 0 -0
5 6 6 6 8 9 10 10 12 12 9 9 10 9 7 9 11 8 9 6 5 6 5 5 4 5 8 8 6 7 7 1 2 8 7 9 4 8 3 3 0 -0 -2 0 2
8 7 5 5 7 11 8 11 11 12 8 11 10 11 7 8 11 13 11 9 10 4 4 2 5 3 4 6 2 0 3 4 3 3 5 6 5 7 6 -1 -2 1 -1 0 -0
9 8 6 7 7 7 8 11 10 11 11 11 9 10 7 8 9 9 9 9 8 4 4 2 3 3 9 4 4 7 6 4 -3 -7 0 1 4 -5 -0 -4 -3 -1 -1 0 -2
Height
824 822 820 820 819 817 815 813 812 810 807 805 803 801 801 801 801 797 799 804 800 794 790 787 786 785 785 791 794 795 818 829 824 828 823 829 828 830 831 832 833 834 835 836 835
824 822 821 820 819 817 816 814 812 809 808 806 804 802 801 801 800 800 805 801 797 794 790 788 787 786 794 797 802 807 822 817 825 825 826 828 828 831 832 833 833 833 836 836 837
824 822 821 820 818 817 816 814 812 810 808 806 804 802 801 800 801 805 802 798 795 792 789 789 788 788 799 803 812 817 822 825 829 828 827 829 830 833 832 833 830 831 834 836 838
824 822 821 819 818 817 815 814 812 810 809 807 804 802 801 801 811 807 802 798 794 791 789 789 790 795 808 811 815 820 827 825 830 830 829 829 833 832 834 824 823 825 829 834 837
824 822 820 818 817 816 815 813 812 811 809 807 806 803 802 808 814 808 803 799 796 792 791 792 796 800 810 814 816 820 828 831 832 831 831 832 832 833 829 825 826 828 830 833 835
823 821 820 818 817 816 814 813 812 810 809 808 807 805 804 818 813 809 803 801 798 795 795 794 799 801 812 819 819 826 829 831 831 830 830 832 831 834 820 822 826 828 830 831 832
823 821 819 818 816 814 813 812 811 810 809 809 808 807 809 819 813 810 805 803 801 800 800 800 800 802 811 819 825 828 824 829 834 833 829 834 829 831 820 821 826 828 829 829 829
823 821 819 817 815 814 814 812 812 811 810 809 808 808 815 814 812 809 806 804 804 802 802 803 803 808 816 823 825 827 830 831 834 837 831 828 821 813 819 820 823 827 828 828 828
823 820 818 816 814 813 813 813 812 810 810 809 809 809 817 814 813 811 809 807 805 805 804 804 806 821 828 827 832 842 836 834 833 843 839 830 824 815 820 821 821 825 825 826 827
824 821 818 817 814 812 812 812 812 810 811 811 811 814 818 824 818 815 810 809 808 806 806 810 822 837 851 845 855 840 842 843 842 843 844 840 832 821 818 820 821 823 825 826 826
825 821 819 817 814 812 812 812 816 816 817 830 831 829 827 823 819 816 812 810 810 816 828 830 846 859 857 858 852 850 851 851 846 851 848 835 841 820 815 815 822 824 825 825 824
825 822 818 817 816 812 812 816 823 824 833 830 829 829 828 827 825 818 815 817 822 833 835 837 852 855 856 854 853 851 851 858 847 847 856 851 837 822 813 808 815 820 824 823 822
825 822 819 817 816 815 815 821 823 823 828 830 830 830 830 829 833 830 826 828 833 841 850 842 851 855 854 856 856 851 854 856 865 860 855 860 827 808 805 808 810 814 817 819 822
825 823 819 817 819 819 821 823 823 824 842 836 832 833 831 829 834 833 832 833 838 843 854 857 857 856 853 853 861 860 862 864 867 875 860 863 836 811 810 809 812 816 818 817 818
826 823 820 817 818 821 825 823 823 825 876 837 836 832 831 834 840 834 836 832 842 846 847 850 860 858 850 858 863 858 865 867 868 897 898 858 866 818 814 811 812 816 818 818 817
827 825 821 821 821 824 823 823 825 855 875 839 840 844 836 841 841 838 839 839 845 844 853 862 866 866 865 867 865 867 865 865 879 890 871 880 870 824 811 806 813 821 820 819 819
827 826 823 822 825 824 824 825 853 869 843 847 849 849 849 850 844 851 857 875 871 854 859 855 861 869 871 863 865 873 874 869 855 868 845 872 880 824 808 807 816 821 821 820 818
828 828 826 825 825 825 825 835 847 846 849 854 852 849 846 854 852 857 857 872 880 872 891 882 855 867 878 882 881 878 890 884 866 867 857 859 856 828 820 820 821 820 820 821 821
829 829 828 828 826 826 831 864 855 851 856 855 852 849 849 851 855 856 871 887 887 893 869 886 856 879 881 882 888 873 885 886 914 938 910 857 838 828 820 824 823 821 820 823 822
829 829 830 828 826 827 844 855 856 860 860 859 848 855 851 856 851 857 859 884 883 890 891 882 885 869 884 883 887 888 895 884 909 881 874 845 870 823 832 827 828 826 825 823 821
830 833 831 828 828 835 863 868 859 862 862 858 855 856 869 865 858 860 867 871 876 882 887 901 894 863 878 880 885 897 907 908 906 905 891 896 841 824 821 815 825 822 821 821 817
832 840 832 828 843 873 867 860 860 862 863 863 865 872 866 861 860 858 857 860 877 879 885 894 895 891 856 902 908 900 895 901 858 859 890 885 820 824 832 833 824 827 823 817 815
844 845 833 830 866 869 866 860 860 861 860 861 860 863 868 861 868 860 855 874 875 875 885 886 883 861 845 886 897 897 911 918 900 878 861 842 813 825 832 834 828 826 814 811 809
848 855 846 846 864 867 858 855 855 863 862 862 862 865 865 863 868 865 856 872 875 874 872 874 885 858 838 832 854 859 878 910 867 857 829 821 808 800 811 824 818 812 808 808 805
855 868 868 873 864 861 860 862 854 855 865 865 863 865 871 868 857 866 862 873 875 872 877 877 883 871 852 844 855 849 847 873 869 835 839 805 836 803 816 816 815 813 812 805 799
859 865 869 871 866 859 864 856 856 853 863 858 861 852 868 868 852 843 847 856 852 875 877 882 868 874 868 850 870 875 851 842 848 849 838 824 820 801 797 815 818 805 807 805 802
858 860 861 867 868 871 864 852 856 854 849 847 853 853 862 852 848 846 846 847 850 866 873 883 876 875 829 857 855 828 812 823 859 870 839 845 807 827 815 823 817 808 806 799 798
Wind_Speed
4 6 7 7 7 9 13 13 13 12 13 13 12 5 3 6 7 17 10 14 16 22 20 11 4 4 4 4 5 3 4 3 6 6 3 3 3 0 1 3 2 4 3 2 13
5 6 6 6 7 10 12 12 11 11 12 12 12 9 4 5 4 13 15 20 19 17 11 9 5 6 5 4 4 5 4 4 1 1 3 4 2 4 2 2 3 2 5 10 20
6 6 6 6 8 10 11 11 10 11 12 12 11 7 8 1 2 6 24 22 17 14 4 2 2 2 5 5 6 4 3 3 2 2 2 4 1 1 3 5 7 7 7 11 12
7 7 6 7 8 8 9 10 9 11 11 11 12 8 5 2 2 12 24 20 16 14 3 2 4 4 5 4 3 6 4 2 2 2 2 2 1 3 6 4 2 6 11 10 9
8 8 7 7 8 8 8 9 8 9 9 8 13 10 3 7 3 18 22 15 11 10 11 3 5 3 5 4 3 4 2 4 2 2 1 1 4 5 8 8 3 9 9 9 10
11 9 9 8 8 9 8 8 9 6 6 5 8 10 3 6 9 19 18 12 16 15 13 10 3 3 7 4 4 3 4 3 2 2 2 2 2 2 1 4 7 6 7 7 9
13 10 9 8 9 8 7 6 5 3 4 4 6 3 8 2 8 20 15 10 13 12 4 8 3 4 4 4 4 5 3 2 5 5 2 3 2 5 4 4 9 8 7 7 8
15 12 10 8 10 3 4 6 5 3 4 4 5 3 3 5 8 23 18 5 8 8 5 7 8 7 5 2 5 4 4 4 2 8 3 3 6 2 3 5 6 9 8 7 6
17 13 10 8 12 3 3 4 8 3 3 5 3 3 2 6 8 19 16 8 8 5 7 4 6 5 6 3 4 7 1 3 6 4 4 6 8 4 3 5 7 8 8 7 6
16 13 9 8 15 5 5 5 3 2 3 2 4 3 6 6 10 19 14 10 4 4 3 9 6 5 6 7 1 4 4 4 5 6 5 5 13 10 6 8 10 8 7 7 6
14 13 11 7 15 3 0 1 3 4 15 5 1 0 5 16 4 20 16 6 4 10 6 6 9 4 3 3 1 0 1 4 4 2 6 2 9 15 9 1 7 8 6 8 8
13 16 13 5 10 3 4 7 2 3 6 2 0 2 2 7 6 13 17 6 8 5 6 6 4 2 3 1 1 0 2 4 6 1 2 6 13 6 5 2 4 8 8 9 4
13 17 13 2 4 13 15 8 5 2 4 3 2 2 4 5 3 9 8 3 6 6 7 6 0 2 1 3 5 1 2 2 4 9 1 7 6 4 2 4 3 2 4 4 8
12 16 10 2 2 4 5 4 2 2 4 7 6 4 3 1 4 3 7 2 7 3 3 6 2 2 1 2 2 4 2 1 5 5 3 5 3 4 2 2 4 4 1 1 3
10 16 8 11 4 4 2 2 1 0 3 4 6 4 5 6 4 6 8 5 4 3 1 2 4 4 3 2 1 5 2 2 2 3 3 4 3 5 0 3 3 4 6 5 4
7 16 11 4 8 5 2 2 1 6 4 4 3 7 4 6 7 6 6 9 0 2 5 3 1 2 1 3 2 4 1 1 3 2 3 3 3 5 4 4 4 3 6 6 6
6 9 17 9 3 3 1 2 5 6 3 4 4 5 0 5 6 8 6 8 4 5 7 4 1 1 2 3 1 6 5 4 5 4 4 2 3 7 1 2 7 8 6 5 7
4 5 13 12 6 3 1 5 2 2 1 1 2 3 2 4 3 6 2 3 4 2 3 3 6 3 5 3 3 3 4 4 4 2 5 2 5 4 3 4 6 7 7 5 4
3 2 9 14 7 3 5 4 4 4 1 3 3 2 3 2 0 4 3 3 2 1 4 3 5 2 4 1 3 0 2 2 5 0 3 3 7 5 2 3 5 5 3 5 6
2 2 7 15 6 2 5 4 2 0 1 1 1 1 2 4 4 5 0 3 2 4 2 3 4 2 1 1 3 3 1 3 3 3 5 5 5 5 8 10 7 5 6 6 5
2 3 8 14 3 5 3 4 2 1 1 1 1 2 2 2 1 2 2 2 3 4 3 3 3 3 1 4 5 2 3 3 3 3 4 3 6 6 12 17 13 8 5 7 8
3 2 9 8 4 2 2 1 1 1 1 1 2 3 2 0 2 2 3 4 6 6 4 3 4 3 8 2 2 2 5 4 3 3 2 1 8 1 5 5 8 7 7 8 7
2 2 6 5 3 2 2 0 1 2 2 2 2 1 3 2 2 3 2 1 5 5 5 5 1 4 6 2 2 3 4 3 2 1 9 5 7 2 2 4 6 7 8 8 6
3 3 4 5 1 5 2 1 1 0 1 1 1 1 1 2 4 3 3 3 4 2 2 5 1 7 10 11 4 3 5 5 5 4 8 15 15 16 9 4 7 9 9 8 8
4 1 2 3 4 2 2 1 1 2 1 2 1 5 6 2 3 5 3 2 2 5 2 4 6 5 14 17 6 11 18 11 15 20 11 18 9 18 9 8 7 7 7 9 10
2 3 1 1 2 2 0 4 6 2 5 3 4 3 7 6 10 14 5 5 6 2 5 2 4 1 5 14 5 7 19 20 17 17 19 24 26 25 24 4 7 11 7 10 10
3 2 4 2 1 2 3 3 4 3 5 5 9 4 6 15 5 4 4 2 3 9 9 6 3 2 7 1 6 10 12 6 4 4 6 9 14 1 3 3 6 7 8 11 8
Wind_Direction
3 355 354 358 358 353 357 1 8 15 17 16 15 351 296 352 25 51 42 336 323 324 330 334 24 57 64 65 38 118 67 160 189 165 155 174 146 193 114 132 192 186 117 293 156
356 350 348 349 348 348 352 357 8 16 12 5 11 23 349 329 19 49 359 341 335 332 336 12 4 4 51 29 19 65 93 176 58 68 155 163 147 159 151 205 242 152 71 139 153
345 336 330 330 336 342 349 355 3 6 2 359 358 347 358 324 96 339 347 350 351 340 319 344 346 47 63 34 1 13 110 151 50 77 56 131 125 304 179 231 220 196 164 158 164
339 337 336 336 337 343 349 355 359 358 357 5 3 348 14 44 53 344 345 352 2 3 81 12 24 55 70 62 349 86 55 47 128 30 63 114 318 265 197 232 294 187 158 161 180
351 342 342 344 344 341 345 350 358 354 350 357 9 19 27 41 348 342 349 1 17 36 48 37 55 94 94 93 80 71 109 54 78 52 39 99 243 245 248 239 125 131 142 174 195
3 353 344 342 342 330 323 327 329 341 351 356 356 17 48 67 339 354 356 18 28 39 41 38 86 102 92 66 69 103 97 110 54 27 339 332 255 20 254 138 165 156 178 187 195
6 1 1 355 343 338 356 346 342 32 16 5 2 31 62 114 352 4 10 24 23 33 39 42 77 77 133 95 151 137 84 90 20 350 328 346 187 223 228 133 197 204 205 214 218
9 2 355 351 352 356 28 43 33 13 7 358 14 44 100 351 4 6 13 28 25 41 60 45 69 95 53 104 42 43 56 15 15 357 325 29 275 176 110 149 197 189 200 213 225
9 2 360 354 355 293 254 337 351 274 3 17 28 51 12 343 9 359 359 352 345 37 46 55 63 75 30 45 31 12 38 351 321 37 324 41 276 227 147 201 214 195 201 213 235
6 5 2 353 356 318 288 265 19 56 360 346 33 37 26 316 320 343 355 359 5 328 24 38 48 62 26 33 191 322 342 320 256 340 354 289 267 292 283 207 216 206 214 220 230
2 8 5 352 358 5 340 134 20 354 40 79 292 265 324 328 322 2 356 346 27 55 35 16 60 48 327 5 324 247 265 271 262 62 336 292 288 295 305 205 212 224 223 228 231
358 4 5 355 17 62 74 74 89 135 84 20 201 350 335 343 358 348 6 54 45 45 335 32 59 284 282 307 305 235 303 288 287 343 14 347 304 288 306 334 195 195 211 221 225
360 1 5 5 20 48 77 90 88 93 86 9 47 15 317 13 71 323 17 16 62 50 20 100 109 313 306 38 11 251 198 337 251 324 232 321 312 337 9 12 48 164 210 217 225
8 4 13 50 85 50 57 69 53 76 73 328 349 5 350 59 45 331 14 74 35 96 74 83 339 347 343 57 9 320 73 359 301 18 275 18 265 276 319 41 46 41 98 130 158
16 12 26 45 96 65 95 46 29 35 37 312 324 323 337 65 310 6 32 29 69 47 96 301 9 16 35 350 68 257 339 275 117 103 41 325 80 254 298 114 116 88 90 94 118
20 24 25 36 57 70 57 39 41 45 259 5 330 349 15 20 359 314 30 38 128 107 42 100 113 61 269 287 234 328 254 139 62 98 17 246 103 278 179 174 129 71 74 82 76
14 28 36 47 44 29 60 58 39 116 2 331 333 12 2 339 356 28 30 13 54 37 10 344 74 75 20 329 159 34 39 336 352 3 225 204 15 244 299 38 142 133 120 76 42
24 49 36 40 27 27 61 55 101 145 238 353 323 312 34 1 30 10 68 40 53 49 76 61 328 22 1 102 195 24 127 144 261 277 291 261 250 271 310 95 120 120 105 82 6
20 26 27 7 11 11 73 59 204 196 169 342 315 52 333 31 231 47 50 179 226 109 120 44 278 109 47 94 103 258 40 180 102 149 34 258 292 318 68 87 110 118 36 330 316
8 54 18 359 2 41 72 197 188 1 16 40 337 69 310 312 8 33 217 225 204 191 200 193 316 86 108 108 53 108 173 36 12 337 294 283 276 233 204 198 196 182 245 272 274
32 47 356 352 23 49 121 208 195 165 138 49 199 272 215 296 285 293 235 210 195 164 99 131 110 275 130 191 180 34 6 30 124 133 204 292 259 210 198 204 199 216 293 302 308
44 21 351 357 42 35 86 359 60 142 34 9 85 135 204 79 276 269 245 215 156 152 141 217 150 270 246 69 144 130 196 152 124 249 209 218 269 157 223 220 162 239 274 275 240
65 280 353 5 91 22 275 78 171 162 220 191 233 205 201 245 338 219 250 96 157 152 172 184 255 303 300 9 30 176 212 143 115 96 208 236 260 315 327 269 236 267 295 307 278
61 13 340 45 45 121 157 217 248 258 263 183 159 93 147 252 214 285 252 197 193 211 158 156 238 205 261 260 139 227 208 217 203 221 256 228 265 280 281 239 266 287 294 280 278
30 245 176 320 350 63 75 294 226 240 252 201 215 223 174 235 248 229 230 170 203 208 129 163 229 226 253 272 260 266 260 219 211 240 242 268 246 262 255 263 245 253 283 294 314
89 110 27 242 316 322 85 225 200 211 151 218 215 213 186 201 204 270 212 194 207 125 169 179 246 178 249 261 253 252 259 249 232 242 256 263 274 270 273 262 278 270 276 283 277
62 102 104 296 45 88 231 231 229 149 234 213 206 183 206 233 241 270 262 267 192 162 190 181 202 177 270 358 305 276 256 201 173 235 172 200 235 211 284 267 260 278 268 272 276